Weather History for Nashua, NH

Change the Weather History Date:

Sunday, November 20, 2011

  Actual Average Record
Temperature  
Mean Temperature 56 °F -  
Max Temperature 64 °F 47 °F 75 °F (1953)
Min Temperature 48 °F 26 °F 9 °F (1986)
Degree Days  
Heating Degree Days 9    
Growing Degree Days 6 (Base 50)    
Moisture  
Dew Point 41 °F    
Average Humidity 58    
Maximum Humidity 72    
Minimum Humidity 46    
Precipitation  
Precipitation 0.00 in - - ()
Sea Level Pressure  
Sea Level Pressure 30.04 in    
Wind  
Wind Speed 6 mph (SW)    
Max Wind Speed 8 mph    
Max Gust Speed -    
Visibility 10 miles    
Events      
Averages and records for this station are not official NWS values.
T = Trace of Precipitation, MM = Missing Value Source: NWS Daily Summary

Daily Weather History Graph

Daily Weather History Graph

Search for Another Location

Airport:

Trip Planner

Search our weather history database for the weather conditions in past years. The results will help you decide how hot, cold, wet, or windy it might be!

Date:

Astronomy

Nov. 20, 2011 Rise Set
Actual Time 6:43 AM EST 4:19 PM EST
Civil Twilight 6:12 AM EST 4:49 PM EST
Nautical Twilight 5:38 AM EST 5:24 PM EST
Astronomical Twilight 5:04 AM EST 5:58 PM EST
Moon 1:01 AM EST (11/20) 1:12 PM EST (11/20)
Length of Visible Light 10h 37m
Length of Day
9h 35m
Waning Crescent, 27% of the Moon is Illuminated
Nov 20
Waning Crescent
Nov 25
New
Dec 2
First Quarter
Dec 10
Full
Dec 17
Last Quarter

Hourly Weather History & Observations

Time (EST) Temp. Dew Point Humidity Pressure Visibility Wind Dir Wind Speed Gust Speed Precip Events Conditions
12:51 AM 48.9 °F 37.9 °F 66% 30.17 in 10.0 mi Variable 6.9 mph - N/A   Clear
1:51 AM 50.0 °F 36.9 °F 61% 30.14 in 10.0 mi SSW 8.1 mph - N/A   Clear
2:51 AM 48.9 °F 34.9 °F 58% 30.12 in 10.0 mi WSW 8.1 mph - N/A   Clear
3:51 AM 50.0 °F 34.9 °F 56% 30.10 in 10.0 mi Variable 3.5 mph - N/A   Mostly Cloudy
4:51 AM 50.0 °F 34.9 °F 56% 30.09 in 10.0 mi Variable 6.9 mph - N/A   Scattered Clouds
5:51 AM 48.9 °F 34.9 °F 58% 30.06 in 10.0 mi Variable 4.6 mph - N/A   Mostly Cloudy
6:51 AM 48.9 °F 36.0 °F 61% 30.06 in 10.0 mi Variable 5.8 mph - N/A   Mostly Cloudy
7:51 AM 50.0 °F 36.9 °F 61% 30.04 in 10.0 mi Variable 4.6 mph - N/A   Clear
8:51 AM 52.9 °F 37.9 °F 57% 30.04 in 10.0 mi Variable 5.8 mph - N/A   Mostly Cloudy
9:51 AM 55.9 °F 38.8 °F 53% 30.03 in 10.0 mi WSW 8.1 mph - N/A   Scattered Clouds
10:51 AM 59.0 °F 39.9 °F 49% 30.01 in 10.0 mi Variable 6.9 mph - N/A   Clear
11:51 AM 61.9 °F 41.9 °F 48% 29.98 in 10.0 mi Variable 4.6 mph - N/A   Clear
12:51 PM 63.9 °F 43.0 °F 47% 29.97 in 10.0 mi Variable 4.6 mph - N/A   Clear
1:51 PM 64.9 °F 43.9 °F 46% 29.96 in 10.0 mi Variable 4.6 mph - N/A   Clear
2:51 PM 64.9 °F 43.9 °F 46% 29.97 in 10.0 mi WSW 8.1 mph - N/A   Clear
3:51 PM 61.9 °F 43.9 °F 52% 29.99 in 10.0 mi Variable 3.5 mph - N/A   Clear
4:51 PM 59.9 °F 43.9 °F 55% 30.00 in 10.0 mi Variable 3.5 mph - N/A   Partly Cloudy
5:51 PM 56.8 °F 45.0 °F 64% 30.01 in 10.0 mi Calm Calm - N/A   Clear
6:51 PM 54.0 °F 45.0 °F 72% 30.02 in 10.0 mi SSE 3.5 mph - N/A   Clear
7:51 PM 57.9 °F 45.0 °F 62% 30.03 in 10.0 mi Variable 4.6 mph - N/A   Clear
8:51 PM 55.9 °F 45.0 °F 67% 30.04 in 10.0 mi Calm Calm - N/A   Clear
9:51 PM 56.8 °F 43.9 °F 62% 30.06 in 10.0 mi Variable 4.6 mph - N/A   Clear
11:51 PM 52.9 °F 43.9 °F 71% 30.08 in 10.0 mi Variable 3.5 mph - N/A   Overcast